TimePDT,TemperatureF,Dew PointF,Humidity,Sea Level PressureIn,VisibilityMPH,Wind Direction,Wind SpeedMPH,Gust SpeedMPH,PrecipitationIn,Events,Conditions,WindDirDegrees,DateUTC
12:56 AM,48.9,41.0,74,30.09,10.0,WNW,10.4,-,N/A,,Clear,290,2013-03-24 07:56:00
1:56 AM,48.9,41.0,74,30.09,10.0,WNW,10.4,-,N/A,,Partly Cloudy,290,2013-03-24 08:56:00
2:56 AM,46.9,41.0,80,30.09,10.0,WNW,3.5,-,N/A,,Clear,290,2013-03-24 09:56:00
3:56 AM,46.9,41.0,80,30.08,10.0,West,3.5,-,N/A,,Clear,260,2013-03-24 10:56:00
4:56 AM,45.0,39.9,82,30.09,10.0,West,6.9,-,N/A,,Clear,280,2013-03-24 11:56:00
5:56 AM,44.1,39.0,82,30.08,10.0,SSW,3.5,-,N/A,,Clear,200,2013-03-24 12:56:00
6:56 AM,46.9,41.0,80,30.09,10.0,Calm,Calm,-,N/A,,Partly Cloudy,0,2013-03-24 13:56:00
7:56 AM,48.0,43.0,83,30.09,9.0,Calm,Calm,-,N/A,,Partly Cloudy,0,2013-03-24 14:56:00
8:56 AM,50.0,42.1,74,30.10,10.0,Calm,Calm,-,N/A,,Scattered Clouds,0,2013-03-24 15:56:00
9:56 AM,54.0,42.1,64,30.11,10.0,Calm,Calm,-,N/A,,Scattered Clouds,0,2013-03-24 16:56:00
10:56 AM,55.9,44.1,64,30.10,10.0,NW,10.4,-,N/A,,Scattered Clouds,310,2013-03-24 17:56:00
11:56 AM,59.0,44.1,58,30.09,10.0,NW,10.4,-,N/A,,Scattered Clouds,310,2013-03-24 18:56:00
12:56 PM,57.9,43.0,58,30.08,10.0,WNW,18.4,-,N/A,,Partly Cloudy,290,2013-03-24 19:56:00
1:56 PM,60.1,44.1,55,30.06,10.0,WNW,15.0,-,N/A,,Partly Cloudy,300,2013-03-24 20:56:00
2:56 PM,61.0,44.1,54,30.03,10.0,WNW,16.1,-,N/A,,Scattered Clouds,300,2013-03-24 21:56:00
3:56 PM,57.0,44.1,62,30.03,10.0,West,19.6,-,N/A,,Scattered Clouds,280,2013-03-24 22:56:00
4:56 PM,57.9,44.1,60,30.01,10.0,WNW,18.4,-,N/A,,Scattered Clouds,290,2013-03-24 23:56:00
5:56 PM,54.0,43.0,66,30.00,10.0,West,25.3,-,N/A,,Scattered Clouds,280,2013-03-25 00:56:00
6:56 PM,52.0,42.1,69,30.01,10.0,West,19.6,-,N/A,,Mostly Cloudy,270,2013-03-25 01:56:00
7:56 PM,51.1,41.0,68,30.00,10.0,West,18.4,-,N/A,,Scattered Clouds,270,2013-03-25 02:56:00
8:56 PM,50.0,43.0,77,30.01,10.0,NW,10.4,-,N/A,,Scattered Clouds,310,2013-03-25 03:56:00
9:56 PM,50.0,43.0,77,30.02,10.0,WNW,8.1,-,N/A,,Scattered Clouds,300,2013-03-25 04:56:00
10:56 PM,48.9,43.0,80,30.03,10.0,WNW,9.2,-,N/A,,Scattered Clouds,300,2013-03-25 05:56:00
11:56 PM,48.9,43.0,80,30.03,10.0,NW,9.2,-,N/A,,Mostly Cloudy,310,2013-03-25 06:56:00